Location: *
(51.1248°S, 108.4023°W)
Time: 03:26:28
(UTC+00:00)

Cosmos 2278 Rocket - Pass Details

Date: 25 October 2021
Orbit: 841 x 845 km, 71.0° (Epoch: 01 December)

Event Time Altitude Azimuth Distance (km) Brightness Sun altitude
Exits shadow 06:17:43 57° 76° (ENE) 1,005 2.4 -26.1°
Drops below altitude 10° 06:23:08 10° 144° (SE) 2,497 5.2 -26.2°
Sets 06:25:38 0° 147° (SSE) 3,439 6.1 -26.3°
